Погода в Давид-Городке

Беларусь     52°03′27″N   27°12′41″E
темп.,
°C
ветер,
м/с
пор.,
м/с
влажн.,
%
обл.,
%
осадки,
мм/ч
давл.,
гПа
погр.,
м
18 апреля, вс
вс1800:00+6зюз2290100 0.0 101935
03:00+5зсз249188 0.0 101974
06:00+5зсз358986 0.0 101899
09:00+7зсз248973 0.0 1018172
12:00+13ссз337386 0.1 1017930
15:00+14ссв357084 0.7 1017896
18:00+11всв4881100 0.4 1018555
21:00+8всв49847 0.4 1020378
19 апреля, пн
пн1900:00+7всв378629 0.0 1020215
03:00+5всв25915 0.0 1020103
06:00+5св3990100 0.0 1020251
09:00+6св3688100 0.0 1020550
12:00+11всв4662100 0.1 10191402
15:00+11всв4665100 0.1 10191063
18:00+9всв3669100 0.0 1019723
21:00+7св2680100 0.0 1019131
20 апреля, вт
вт2000:00+7св368819 0.0 1018166
03:00+7всв4894100 0.2 1017373
06:00+6всв3794100 0.3 1016449
09:00+7св468296 0.7 1016789
12:00+7св4574100 0.0 10151012
15:00+9ссв356689 0.1 10131263
18:00+9ссв356577 0.2 10121146
21:00+4св12865 0.3 101212
21 апреля, ср
ср2100:00+3ссз24925 0.0 101281
03:00+2сз24915 0.0 101173
06:00+2з25965 0.0 101190
09:00+7зсз358086 0.0 1011402
12:00+10зсз466782 0.3 10111204
15:00+12з465895 0.7 10111398
18:00+12з456098 0.2 10111196
21:00+7юз228348 0.3 101333
22 апреля, чт
чт2200:00+6юз34885 0.0 101366
03:00+5юз349262 0.1 101476
06:00+4ююз239296 0.0 101446
09:00+10ююз357612 0.0 1015314
12:00+14ююз465918 0.3 10151355
15:00+16юз575099 1.0 10152114
18:00+13з357088 0.7 1015650
21:00+9зюз228621 0.7 101614